Regional Weather Roundup
Issued by NWS Grand Forks, ND

Home | Current Version | Previous Version | Graphics & Text | Print | Product List | Glossary On
Versions: 1 2 3 4 5 6 7 8 9 10 11 12 13 14 15 16 17 18 19 20 21 22 23 24 25 26 27 28 29 30 31 32 33 34 35 36 37 38 39 40 41 42 43 44 45 46 47 48 49 50
000
ASUS43 KFGF 201310
RWRFGF
PRAIRIE TO PINES  WEATHER ROUNDUP
NATIONAL WEATHER SERVICE EASTERN NORTH DAKOTA/GRAND FORKS ND
800 AM CDT SAT SEP 20 2014

 **SATELLITE DATA USED TO AUGMENT SKY COVER AT AUTOMATED STATIONS**
 *****  WEATHER ACROSS EASTERN NORTH DAKOTA  *****

CITY           SKY/WX    TMP DP  RH WIND       PRES   REMARKS
GRAND FORKS    MOCLDY    52  50  93 S5        29.80R
GRAND FRKS AFB PTCLDY    49  49 100 S6        29.81R
GRAND FRKS NWS   N/A     52 N/A N/A NW3         N/A
DEVILS LAKE    CLEAR     55  48  76 SW9       29.78S
FARGO          CLEAR     51  49  92 SW3       29.82R
WAHPETON ARPT  MOSUNNY   48  45  87 CALM      29.84S
$$

 ***** WEATHER ACROSS CENTRAL AND WESTERN NORTH DAKOTA  *****

CITY           SKY/WX    TMP DP  RH WIND       PRES   REMARKS
BISMARCK       PTCLDY    52  49  89 W5        29.87S
MINOT          MOCLDY    57  51  80 SW9       29.79F
JAMESTOWN      CLEAR     53  51  93 W6        29.84R
MINOT AFB      MOCLDY    56  55  95 NW14      29.79F
GARRISON         N/A     53  52  96 SW5       29.85R
WILLISTON      MOCLDY    56  49  77 N14       29.93R
DICKINSON      CLEAR     54  47  77 W14       29.91R
HETTINGER      CLEAR     54  47  77 W13       29.96R
$$

 *****  OTHER AIRPORT OBSERVATIONS IN OUR AREA  *****

CITY           SKY/WX    TMP DP  RH WIND       PRES   REMARKS
WALHALLA       CLOUDY    54  54 100 SW3       29.77S
GRAFTON AIRPOR FOG       48  48 100 W5        29.78S VSB 1/4
VALLEY CITY AR FAIR      54  54 100 W5        29.84R FOG
CANDO          FAIR      48  48 100 W6        29.80R FOG
CAVALIER APRT  CLOUDY    54  54 100 SW3       29.77S FOG
GWINNER        SUNNY     54  54 100 SW6       29.86R
ROLLA          FAIR      55  55 100 W9        29.79S
 ***** THE ABOVE OBSERVATIONS ARE NON NWS ARE NOT QUALITY
       CONTROLLED AND MAY MIS-REPORT RAIN FOR SNOW...
$$

  *****  WEATHER ACROSS NORTHERN MINNESOTA  *****

CITY           SKY/WX    TMP DP  RH WIND       PRES   REMARKS
FLAG ISLAND    CLOUDY    50  48  93 NW14      29.71S
WARROAD        CLEAR     48  45  87 SW6       29.76R
ROSEAU         CLEAR     50  45  81 W6        29.76S
HALLOCK        FOG       48  46  93 CALM      29.77S VSB<1/4
THF RVR FALLS  CLOUDY    54  52  94 W6        29.80S
BAUDETTE       CLOUDY    50  47  89 NW8       29.73R
WASKISH        CLOUDY    52  48  87 W8        29.76R
CROOKSTON      CLOUDY    54  52  94 W3        29.81S
STEPHEN NDAWN    N/A     54  52  94 S3          N/A
GREENBUSH NDAW   N/A     46  46 100 S3          N/A
$$
  *****  WEATHER ACROSS CENTRAL AND WEST MINNESOTA  *****

CITY           SKY/WX    TMP DP  RH WIND       PRES   REMARKS
FOSSTON        CLOUDY    54  52  94 CALM      29.81S
BEMIDJI        CLOUDY    54  51  88 NW7       29.78R
PARK RAPIDS    PTCLDY    55  53  93 NW12      29.79R
ELBOW LAKE     CLOUDY    55  54  96 NW7       29.84R
WADENA         CLEAR     54  54 100 W5        29.80R
DETROIT LAKES  CLOUDY    55  54  94 NW8       29.83R
MOORHEAD       PTCLDY    54  54 100 CALM      29.84R
FERGUS FALLS   CLOUDY    55  54  94 NW8       29.84R
MORRIS MN      PTCLDY    55  54  94 W5        29.84R FOG
STAPLES        PTCLDY    55  54  94 W6        29.79R
$$
  *****  WEATHER ELSEWHERE ACROSS MINNESOTA  *****

CITY           SKY/WX    TMP DP  RH WIND       PRES   REMARKS
DULUTH         CLOUDY    62  55  77 NW16G26   29.68R
INTRNTL FALLS  CLOUDY    52  51  97 W9        29.69R FOG
ELY            CLOUDY    57  55  94 W7        29.65R
CLOQUET        PTSUNNY   61  55  82 W13       29.71R
WHEATON        CLEAR     52  52 100 W5        29.87R FOG
BRAINERD       MOCLDY    57  54  89 NW8       29.78R
HIBBING        CLOUDY    57  53  86 NW13G21   29.71R
ALEXANDRIA     MOCLDY    57  55  93 W9        29.83R
SAINT CLOUD    CLEAR     60  56  86 W5        29.78R FOG
MINNEAPOLIS    MOSUNNY   64  58  80 NW12      29.77R
$$

  *****  WEATHER ACROSS SOUTH DAKOTA  *****

CITY           SKY/WX    TMP DP  RH WIND       PRES   REMARKS
SIOUX FALLS    MOCLDY    62  58  86 W5        29.89S
BROOKINGS      NOT AVBL
WATERTOWN      CLEAR     54  53  97 CALM      29.88R
HURON          CLEAR     53  50  89 W5        29.90R
SISSETON         N/A     56  54  93 W3        29.85R
ABERDEEN       CLEAR     56  52  86 W3        29.88R
MITCHELL       CLEAR     59  56  89 W5        29.92R
PIERRE         CLEAR     55  50  83 W3        29.93R
MOBRIDGE       CLEAR     49  48  97 CALM      29.89R
RAPID CITY     CLEAR     54  46  74 NW9       30.05S
$$

  *****  SOME WEATHER IN NEARBY STATES *****

CITY           SKY/WX    TMP DP  RH WIND       PRES   REMARKS
GLASGOW MT     CLEAR     50  44  80 NW8       30.03R
GREAT FALLS MT PTCLDY    51  41  68 SW12      30.17R
CHEYENNE WY    CLEAR     52  43  71 NW9       30.26R
SCOTTSBLUFF NE CLEAR     52  48  86 NW9       30.15R
OMAHA NE       CLOUDY    70  64  81 S13       29.91R
DES MOINES IA  LGT RAIN  68  64  87 S9        29.86F
DAVENPORT IA   CLOUDY    64  61  90 S12       29.88F FOG
CHICAGO IL     CLOUDY    65  55  70 SW13G18   29.89F
EAU CLAIRE WI  CLOUDY    67  63  87 SW9       29.72R
LA CROSSE WI   MOSUNNY   68  62  81 VRB6      29.74F
$$

  *****  SOME NATIONAL WEATHER *****

CITY           SKY/WX    TMP DP  RH WIND       PRES   REMARKS
LA GUARDIA NY  PTSUNNY   65  55  70 CALM      30.30R
RALEIGH NC     MOSUNNY   64  58  80 NE9       30.22F
ATLANTA GA     CLOUDY    68  62  81 E12       30.16R
NEW ORLEANS LA SUNNY     79  71  76 E9        29.97R
OKLAHOMA CITY  PTCLDY    70  68  93 S5        30.01R FOG
ALBUQUERQUE NM CLEAR     63  56  78 N9        30.15R
SALT LAKE CITY PTCLDY    57  50  77 SE3       30.14R
LOS ANGELES CA CLOUDY    68  62  81 E3        29.91R
BOISE ID       CLEAR     55  43  63 S6        30.10R
SEATTLE WA     PTCLDY    59  55  87 NE12      30.10S
$$

*** WEATHER ACROSS MANITOBA...SASKATCHEWAN AND ONTARIO ***
                ***ONTARIO***

CITY           SKY/WX    TMP DP  RH WIND       PRES   REMARKS
GERALDTON      LGT RAIN  55  55 100 E12       29.51R VSB 3/4
THUNDER BAY    PTSUNNY   59  57  94 SW3       29.52F
SIOUX LOOKOUT  CLOUDY    54  54 100 N3        29.64R
TORONTO        CLOUDY    61  59  94 S8        30.00S
BIG TROUT LK   CLOUDY    39  34  81 N6        29.68R
PICKLE LAKE    DRIZZLE   46  45  93 NE7       29.64R FOG
DRYDEN         CLOUDY    55  54  94 W9        29.66R
KENORA         CLOUDY    52  50  93 W5        29.71R
$$
                *** MANITOBA***

CITY           SKY/WX    TMP DP  RH WIND       PRES   REMARKS
BRANDON        CLOUDY    48  48 100 W8        29.75R
DAUPHIN        CLOUDY    55  52  88 W18G25    29.71R
ISLAND LAKE    CLOUDY    45  39  81 CALM      29.70S
PILOT MOUND    NOT AVBL
THE PAS        MOCLDY    50  48  93 W8        29.61R
THOMPSON       MOCLDY    37  37 100 E5        29.67S
WINNIPEG       FOG       45  45 100 SE2       29.76R VSB 1/4
LYNN LAKE      LGT RAIN  41  39  93 E8        29.62R FOG
CHURCHILL      LGT RAIN  37  34  87 N15       29.73R
GILLAM         MOCLDY    36  34  93 NE6       29.73R
$$
                ***SASKATCHEWAN***

CITY           SKY/WX    TMP DP  RH WIND       PRES   REMARKS
ESTEVAN        LGT RAIN  52  52 100 NW12      29.88R
KINDERSLEY     PTCLDY    46  39  76 NW9       30.03R
LLOYDMINSTER   PTCLDY    48  37  66 W18       29.95R
PRINCE ALBERT  LGT RAIN  52  43  71 W13       29.77R
REGINA         PTCLDY    52  50  93 W10       29.89R
YORKTON        MOCLDY    50  48  93 W12       29.77R
N. BATTLEFORD  CLEAR     52  37  58 W15G21    29.93R
LA RONGE       MOCLDY    50  48  93 W8        29.67R
SASKATOON      PTCLDY    45  41  87 W10       29.89R
SWIFT CURRENT  CLEAR     48  46  93 W20       30.02R
$$
NOTE: THESE ARE AUTOMATED STATIONS WITH LIMITED QUALITY CONTROL
      "FAIR" INDICATES FEW OR NO CLOUDS BELOW 12,000 FEET WITH NO
      SIGNIFICANT WEATHER AND/OR OBSTRUCTIONS TO VISIBILITY.
      SKY/WX - SKY CONDITION AND SIGNIFICANT WEATHER.
      TMP - AIR TEMPERATURE.    DP   - DEWPOINT TEMPERATURE.
      RH  - RELATIVE HUMIDITY.  PRES - PRESSURE.
      HX  - HEAT INDEX.         WCI  - WIND CHILL INDEX.
$


USA.gov is the U.S. government's official web portal to all federal, state and local government web resources and services.